Weather in Ust'-Ishim

Russia / Omsk Oblast     57°41′26″N   71°09′52″E
temp.,
°C
wind,
m/s
gust,
m/s
humid.,
%
clouds,
%
prec.,
mm/h
press.,
hPa
HPBL,
m
19 june, sat
sat1900:00+10nnw4125499 0.0 10091321
03:00+7nw412675 0.0 1009394
06:00+7nw412665 0.0 1010628
09:00+12nnw59465 0.0 10101948
12:00+14nnw5837100 0.0 10102500
15:00+16nnw593484 0.0 10102616
18:00+17nnw473367 0.0 10082572
21:00+13nnw11635 0.0 100810
20 june, sun
sun2000:00+9sw227092 0.0 100822
03:00+8wsw2477100 0.0 100684
06:00+10ssw31177100 0.0 1004344
09:00+11s41281100 0.1 1001676
12:00+11ssw61398100 5.5 997697
15:00+11nw5119034 7.3 998915
18:00+12nw6852100 7.6 10001631
21:00+9nw4774100 0.1 1001839
21 june, mon
mon2100:00+7nw4984100 0.1 1002574
03:00+6nw41196100 0.4 1001722
06:00+10ne61295100 0.5 10031003
09:00+14ne610705 0.0 10071080
12:00+18ne584558 0.2 10101997
15:00+19ne4843100 0.1 10112655
18:00+17n5852100 0.1 10131635
21:00+13n498088 0.3 1014591
22 june, tue
tue2200:00+11nnw389694 0.6 1015276
03:00+10n3897100 0.2 1015461
06:00+9n3797100 0.2 1016355
09:00+12n478796 0.6 1016545
12:00+17n463898 1.1 10152508
15:00+16nnw464280 0.0 10151749
18:00+16nw4647100 0.0 10151874
21:00+12nw4874100 0.1 1015296
23 june, wed
wed2300:00+10nnw398068 0.1 1016305
03:00+6n24965 0.0 101775
06:00+7n278599 0.0 1017204
09:00+13n3657100 0.0 1018654
12:00+16n454164 0.0 10172164
15:00+16nnw4643100 0.0 10172118
18:00+14n3753100 0.0 1017662
21:00+12nw246981 0.0 101788